| time (UTC) | temp F | wind direction | speed MPH | gust MPH | rain 1hr in | rain 24hr in | rain mn in | humidity % | barometer mb |
| 20260510220056 | 76 | 360 | 2.0 | 11.0 | 0.00 | 0.00 | 0.00 | 23 | 1023.5 |
| 20260510214601 | 76 | 360 | 4.0 | 11.0 | 0.00 | 0.00 | 0.00 | 23 | 1023.5 |
| 20260510213052 | 76 | 360 | 7.0 | 13.0 | 0.00 | 0.00 | 0.00 | 23 | 1023.7 |
| 20260510211602 | 76 | 360 | 4.0 | 15.0 | 0.00 | 0.00 | 0.00 | 23 | 1023.9 |
| 20260510210057 | 77 | 360 | 3.0 | 9.0 | 0.00 | 0.00 | 0.00 | 23 | 1023.9 |
| 20260510204559 | 77 | 360 | 6.0 | 13.0 | 0.00 | 0.00 | 0.00 | 23 | 1024.1 |
| 20260510203055 | 77 | 360 | 7.0 | 16.0 | 0.00 | 0.00 | 0.00 | 22 | 1024.2 |
| 20260510201555 | 77 | 233 | 4.0 | 18.0 | 0.00 | 0.00 | 0.00 | 23 | 1024.2 |
| 20260510200052 | 77 | 322 | 1.0 | 7.0 | 0.00 | 0.00 | 0.00 | 23 | 1024.4 |
| 20260510194547 | 77 | 312 | 6.0 | 16.0 | 0.00 | 0.00 | 0.00 | 23 | 1024.6 |
| 20260510193053 | 77 | 266 | 2.0 | 12.0 | 0.00 | 0.00 | 0.00 | 22 | 1024.7 |
| 20260510191550 | 76 | 228 | 7.0 | 16.0 | 0.00 | 0.00 | 0.00 | 22 | 1024.9 |
| 20260510190048 | 76 | 88 | 4.0 | 15.0 | 0.00 | 0.00 | 0.00 | 23 | 1025.2 |
| 20260510184557 | 76 | 360 | 1.0 | 6.0 | 0.00 | 0.00 | 0.00 | 24 | 1025.5 |
| 20260510183052 | 75 | 360 | 5.0 | 14.0 | 0.00 | 0.00 | 0.00 | 26 | 1025.7 |
| 20260510181601 | 74 | 360 | 6.0 | 12.0 | 0.00 | 0.00 | 0.00 | 25 | 1025.8 |
| 20260510180107 | 74 | 39 | 0.0 | 7.0 | 0.00 | 0.00 | 0.00 | 25 | 1026.0 |
| 20260510174558 | 73 | 30 | 4.0 | 8.0 | 0.00 | 0.00 | 0.00 | 26 | 1026.1 |
| 20260510173056 | 73 | 360 | 4.0 | 10.0 | 0.00 | 0.00 | 0.00 | 25 | 1026.2 |
| 20260510171601 | 73 | 360 | 4.0 | 9.0 | 0.00 | 0.00 | 0.00 | 25 | 1026.2 |
| 20260510170114 | 72 | 360 | 2.0 | 7.0 | 0.00 | 0.00 | 0.00 | 27 | 1026.3 |
| 20260510164603 | 71 | 0 | 3.0 | 9.0 | 0.00 | 0.00 | 0.00 | 27 | 1026.4 |
| 20260510163049 | 71 | 360 | 3.0 | 8.0 | 0.00 | 0.00 | 0.00 | 26 | 1026.3 |
| 20260510161550 | 70 | 0 | 1.0 | 9.0 | 0.00 | 0.00 | 0.00 | 30 | 1026.3 |
| 20260510160051 | 69 | 360 | 1.0 | 7.0 | 0.00 | 0.00 | 0.00 | 31 | 1026.4 |
| 20260510154550 | 68 | 0 | 3.0 | 7.0 | 0.00 | 0.00 | 0.00 | 32 | 1026.3 |
| 20260510153053 | 67 | 234 | 2.0 | 8.0 | 0.00 | 0.00 | 0.00 | 35 | 1026.2 |
| 20260510151552 | 66 | 215 | 4.0 | 8.0 | 0.00 | 0.00 | 0.00 | 36 | 1026.0 |
| 20260510150052 | 65 | 360 | 3.0 | 8.0 | 0.00 | 0.00 | 0.00 | 37 | 1025.9 |
| 20260510144552 | 64 | 360 | 4.0 | 9.0 | 0.00 | 0.00 | 0.00 | 38 | 1025.9 |
| 20260510143058 | 63 | 360 | 4.0 | 9.0 | 0.00 | 0.00 | 0.00 | 39 | 1025.9 |
| 20260510141553 | 62 | 360 | 3.0 | 6.0 | 0.00 | 0.00 | 0.00 | 39 | 1025.7 |
| 20260510140054 | 62 | 360 | 2.0 | 5.0 | 0.00 | 0.00 | 0.00 | 41 | 1025.7 |
| 20260510134556 | 61 | 242 | 1.0 | 6.0 | 0.00 | 0.00 | 0.00 | 41 | 1025.6 |
| 20260510133051 | 61 | 268 | 2.0 | 6.0 | 0.00 | 0.00 | 0.00 | 42 | 1025.5 |
| 20260510131549 | 61 | 291 | 1.0 | 4.0 | 0.00 | 0.00 | 0.00 | 42 | 1025.2 |
| 20260510130050 | 60 | 0 | 0.0 | 4.0 | 0.00 | 0.00 | 0.00 | 42 | 1024.9 |
| 20260510124604 | 60 | 291 | 1.0 | 7.0 | 0.00 | 0.00 | 0.00 | 42 | 1024.7 |
| 20260510123053 | 61 | 285 | 2.0 | 7.0 | 0.00 | 0.00 | 0.00 | 42 | 1024.5 |
| 20260510121555 | 61 | 260 | 1.0 | 7.0 | 0.00 | 0.00 | 0.00 | 40 | 1024.4 |
| 20260510120051 | 61 | 226 | 2.0 | 5.0 | 0.00 | 0.00 | 0.00 | 41 | 1024.2 |
| 20260510114552 | 61 | 218 | 1.0 | 5.0 | 0.00 | 0.00 | 0.00 | 41 | 1024.0 |
| 20260510113053 | 61 | 218 | 2.0 | 5.0 | 0.00 | 0.00 | 0.00 | 41 | 1024.1 |
| 20260510111555 | 61 | 218 | 2.0 | 5.0 | 0.00 | 0.00 | 0.00 | 42 | 1024.2 |
| 20260510110052 | 60 | 217 | 2.0 | 6.0 | 0.00 | 0.00 | 0.00 | 42 | 1024.2 |
| 20260510104555 | 60 | 219 | 3.0 | 7.0 | 0.00 | 0.00 | 0.00 | 41 | 1024.1 |
| 20260510103100 | 60 | 223 | 4.0 | 6.0 | 0.00 | 0.00 | 0.00 | 42 | 1024.0 |
| 20260510101551 | 60 | 236 | 3.0 | 5.0 | 0.00 | 0.00 | 0.00 | 41 | 1023.8 |
| 20260510100101 | 61 | 239 | 1.0 | 7.0 | 0.00 | 0.00 | 0.00 | 40 | 1023.8 |
| 20260510094601 | 61 | 219 | 2.0 | 5.0 | 0.00 | 0.00 | 0.00 | 40 | 1023.7 |
| 20260510093055 | 61 | 219 | 2.0 | 4.0 | 0.00 | 0.00 | 0.00 | 40 | 1023.6 |
| 20260510091549 | 61 | 219 | 2.0 | 6.0 | 0.00 | 0.00 | 0.00 | 40 | 1023.7 |
| 20260510090050 | 62 | 205 | 4.0 | 7.0 | 0.00 | 0.00 | 0.00 | 39 | 1023.7 |
| 20260510084550 | 62 | 220 | 2.0 | 6.0 | 0.00 | 0.00 | 0.00 | 38 | 1023.8 |
| 20260510083059 | 62 | 229 | 2.0 | 7.0 | 0.00 | 0.00 | 0.00 | 37 | 1023.9 |
| 20260510081553 | 63 | 212 | 4.0 | 8.0 | 0.00 | 0.00 | 0.00 | 36 | 1024.0 |
| 20260510080053 | 64 | 222 | 3.0 | 8.0 | 0.00 | 0.00 | 0.00 | 36 | 1024.1 |
| 20260510074556 | 64 | 216 | 4.0 | 9.0 | 0.00 | 0.00 | 0.00 | 35 | 1024.3 |
| 20260510073106 | 64 | 229 | 2.0 | 6.0 | 0.00 | 0.00 | 0.00 | 35 | 1024.4 |
| 20260510071552 | 65 | 238 | 2.0 | 7.0 | 0.00 | 0.00 | 0.00 | 35 | 1024.4 |
| 20260510070054 | 65 | 236 | 2.0 | 7.0 | 0.00 | 0.00 | 0.00 | 35 | 1024.6 |
| 20260510064558 | 65 | 223 | 3.0 | 8.0 | 0.00 | 0.00 | 0.00 | 35 | 1024.6 |
| 20260510063054 | 66 | 219 | 4.0 | 8.0 | 0.00 | 0.00 | 0.00 | 35 | 1024.8 |
| 20260510061555 | 66 | 225 | 4.0 | 8.0 | 0.00 | 0.00 | 0.00 | 35 | 1024.8 |
| 20260510060055 | 66 | 242 | 3.0 | 8.0 | 0.00 | 0.00 | 0.00 | 34 | 1024.9 |
| 20260510054554 | 66 | 311 | 1.0 | 4.0 | 0.00 | 0.00 | 0.00 | 35 | 1025.1 |
| 20260510053053 | 66 | 319 | 2.0 | 5.0 | 0.00 | 0.00 | 0.00 | 35 | 1025.1 |
| 20260510051556 | 66 | 326 | 1.0 | 5.0 | 0.00 | 0.00 | 0.00 | 35 | 1025.2 |
| 20260510050052 | 66 | 318 | 1.0 | 5.0 | 0.00 | 0.00 | 0.00 | 36 | 1025.3 |
| 20260510044554 | 67 | 334 | 3.0 | 7.0 | 0.00 | 0.00 | 0.00 | 36 | 1025.2 |
| 20260510043054 | 67 | 360 | 2.0 | 9.0 | 0.00 | 0.00 | 0.00 | 36 | 1024.9 |
| 20260510041553 | 67 | 360 | 3.0 | 10.0 | 0.00 | 0.00 | 0.00 | 36 | 1024.7 |
| 20260510040058 | 68 | 360 | 5.0 | 10.0 | 0.00 | 0.00 | 0.00 | 35 | 1024.5 |
| 20260510034549 | 68 | 360 | 5.0 | 11.0 | 0.00 | 0.00 | 0.00 | 34 | 1024.4 |
| 20260510033057 | 69 | 360 | 5.0 | 12.0 | 0.00 | 0.00 | 0.00 | 33 | 1024.1 |
| 20260510031550 | 69 | 360 | 7.0 | 11.0 | 0.00 | 0.00 | 0.00 | 33 | 1023.8 |
| 20260510030050 | 68 | 360 | 7.0 | 11.0 | 0.00 | 0.00 | 0.00 | 33 | 1023.7 |
| 20260510024549 | 69 | 360 | 6.0 | 15.0 | 0.00 | 0.00 | 0.00 | 32 | 1023.5 |
| 20260510023048 | 70 | 360 | 6.0 | 10.0 | 0.00 | 0.00 | 0.00 | 30 | 1023.2 |
| 20260510021549 | 71 | 360 | 3.0 | 10.0 | 0.00 | 0.00 | 0.00 | 30 | 1023.1 |
| 20260510020047 | 71 | 360 | 3.0 | 9.0 | 0.00 | 0.00 | 0.00 | 29 | 1022.8 |
| 20260510014553 | 72 | 360 | 5.0 | 10.0 | 0.00 | 0.00 | 0.00 | 29 | 1022.5 |
| 20260510013049 | 72 | 360 | 5.0 | 11.0 | 0.00 | 0.00 | 0.00 | 28 | 1022.4 |
| 20260510011550 | 73 | 360 | 6.0 | 10.0 | 0.00 | 0.00 | 0.00 | 27 | 1022.2 |
| 20260510010049 | 73 | 360 | 4.0 | 13.0 | 0.00 | 0.00 | 0.00 | 26 | 1022.0 |
| 20260510004551 | 75 | 360 | 5.0 | 11.0 | 0.00 | 0.00 | 0.00 | 25 | 1021.6 |
| 20260510003103 | 75 | 360 | 5.0 | 11.0 | 0.00 | 0.00 | 0.00 | 21 | 1021.6 |
| 20260510001552 | 76 | 360 | 2.0 | 11.0 | 0.00 | 0.00 | 0.00 | 21 | 1021.5 |
| 20260510000055 | 76 | 360 | 3.0 | 12.0 | 0.00 | 0.00 | 0.00 | 21 | 1021.2 |
| 20260509234559 | 76 | 360 | 3.0 | 13.0 | 0.00 | 0.00 | 0.00 | 22 | 1021.1 |
| 20260509233049 | 76 | 360 | 7.0 | 15.0 | 0.00 | 0.00 | 0.00 | 21 | 1021.0 |
| 20260509231556 | 76 | 252 | 2.0 | 8.0 | 0.00 | 0.00 | 0.00 | 23 | 1020.9 |
| 20260509230053 | 76 | 235 | 1.0 | 9.0 | 0.00 | 0.00 | 0.00 | 24 | 1021.0 |
| 20260509224559 | 75 | 360 | 4.0 | 11.0 | 0.00 | 0.00 | 0.00 | 24 | 1021.1 |
| 20260509223053 | 76 | 189 | 6.0 | 14.0 | 0.00 | 0.00 | 0.00 | 24 | 1021.1 |
| 20260509221554 | 76 | 219 | 7.0 | 14.0 | 0.00 | 0.00 | 0.00 | 24 | 1021.5 |